User: anonymous
Location: Caltech
(34.1382°N, 118.1253°W)
Time: 19:13:46
(UTC-07:00)
Language:

Cosmos-2242 - Orbit

View from above orbital plane
View from above orbital plane
View from above satellite
View from above satellite

Ground track
Ground track

The orbit data is extracted from the following two-line orbital elements,

1 22626U 93024A   14242.22753771  .00000623  00000-0  68438-4 0  1809
2 22626 082.5211 284.4528 0018131 268.5481 091.3659 14.85997888154268
Epoch (UTC): 30 August 2014 05:27:39
Eccentricity: 0.0018131
inclination: 82.5211°
perigee height: 598 km
apogee height: 623 km
right ascension of ascending node: 284.4528°
argument of perigee: 268.5481°
revolutions per day: 14.85997888
mean anomaly at epoch: 91.3659°
orbit number at epoch: 15426

The dashed part of the orbit path shows where the satellite is in the earth's shadow,  

DLR